Volver al catálogo

RITE TARGET 1

ActivoCienciaSSO
NORAD 28454·PAYLOAD·🇯🇵 Japan

Lanzado Dec 14, 2002 desde Tanegashima Space Center

Loading…

Próximos Pases (próximas 24 horas)

TLE

ActualizadoSource: Space-Track

Época: Sep 14, 2026, 03:57 UTC

1 28454U 02056F   26257.16468549  .00000464  00000-0  17145-3 0  9996
2 28454  98.7623 234.2742 0008562 310.9702  49.0742 14.37196541693439

Sigue RITE TARGET 1 en tiempo real con AllMySat

Download on the App Store